Terug naar catalogus

HULIANWANG DIGUI-121

ActiefCommunicatieLEO
NORAD 67061·PAYLOAD·🇨🇳 China

Gelanceerd Dec 11, 2025 vanaf Wenchang Space Launch Site

Loading…

Volgende Passages (komende 24 uur)

TLE

VersSource: Space-Track

Epoch: Sep 14, 2026, 20:05 UTC

1 67061U 25295C   26257.83724554 -.00000119  00000-0  11351-4 0  9990
2 67061  50.0002  64.0922 0000820  61.3405 298.7549 13.29326924 37422

Volg HULIANWANG DIGUI-121 in realtime met AllMySat

Download on the App Store